www.pogodaiklimat.ru

Погода и климат >> Архив погоды >> Черногория >> Бар


ПОГОДА в Баре

  • Прогноз погоды в Баре
  • Монитор погоды в Баре

АРХИВ ПОГОДЫ в Баре

Время (UTC), дата Ветер
(напр.,м/с)
 
Видим.   Явления Облачность Т
(С)
Тd
(С)
f
(%)
Тe
(С)
Тes
(С)
Комфортность P
(гПа)
Po
(гПа)
Тmin
(С)
Tmax
(С)
R
(мм)
R24
(мм)
S
(см)
10 16.09 ЮЗ 4 20 км 3/0
[Ci sp]
+25.7 +17.6 61 +30 +38 душно 1019.8 1019.1
11 16.09 ЮЗ 3 20 км 3/0
[Ci sp]
+26.5 +18.1 60 +31 +41 душно 1019.5 1018.8
12 16.09 З 3 20 км 3/0
[Ci sp]
+28.1 +18.4 56 +33 +42 очень
душно
1018.8 1018.1
13 16.09 З 3 20 км 3/0
[Ci sp]
+28.5 +19.2 57 +34 +41 очень
душно
1018.0 1017.3
14 16.09 З 4 20 км 4/0
[Ci sp]
+28.5 +20.2 61 +35 +38 очень
душно
1017.5 1016.8
15 16.09 З 3 20 км 4/0
[Ci sp]
+27.3 +20.7 67 +34 +36 очень
душно
1017.3 1016.6
16 16.09 З 4 20 км 5/0
[Ci sp]
+25.1 +20.5 76 +31 +32 очень
душно
1017.0 1016.3
17 16.09 З 3 20 км 5/0
[Ci sp]
+23.7 +19.7 78 +29 +29 душно 1016.7 1016.0
18 16.09 СВ 3 20 км 5/0
[Ci sp]
+22.0 +18.2 79 +27 +27 душно 1017.0 1016.3 +28.9
19 16.09 СВ 2 20 км 5/0
[Ci sp]
+21.0 +16.6 76 +25 +25 комфорт 1017.1 1016.4
20 16.09 В 3 20 км 3/0
[Ci sp]
+20.4 +14.2 68 +23 +23 комфорт 1017.2 1016.5
21 16.09 СВ 3 20 км 3/0
[Ci sp]
+19.6 +14.2 71 +22 +22 комфорт 1017.4 1016.7
00 17.09 СВ 2 20 км ясно +18.7 +14.6 77 +20 +20 1016.9 1016.2
03 17.09 СВ 2 20 км ясно +18.5 +14.5 78 +20 +20 1017.0 1016.3
04 17.09 СВ 2 15 км 6/6 420 м
[St]
+18.4 +14.2 77 +19 +19 1016.6 1015.9
05 17.09 В 3 20 км 3/3 500 м
[St]
+18.8 +14.5 76 +20 +20 1016.9 1016.2
06 17.09 В 3 20 км 1/1 500 м
[St]
+23.0 +16.6 67 +28 +29 душно 1016.8 1016.1 +18.1
07 17.09 Ю 2 20 км 1/1 500 м
[St]
+25.2 +18.3 66 +30 +33 душно 1017.3 1016.6
08 17.09 З 3 20 км ясно +26.4 +19.7 67 +32 +38 очень
душно
1017.1 1016.4
09 17.09 Ю 4 20 км 1/1 480 м
[St]
+25.5 +20.4 73 +31 +38 очень
душно
1017.4 1016.7
10 17.09 Ю 5 20 км 1/1 900 м
[Cu hum]
+25.4 +20.0 72 +31 +37 очень
душно
1017.2 1016.5
11 17.09 ЮЗ 4 20 км 1/1 900 м
[Cu hum]
+25.5 +20.3 73 +31 +39 очень
душно
1017.1 1016.4
12 17.09 ЮЗ 4 20 км 1/1 900 м
[Cu hum]
+26.0 +20.7 73 +33 +39 очень
душно
1016.5 1015.8
13 17.09 З 3 20 км 1/1 900 м
[Cu hum]
+27.7 +20.5 65 +34 +41 очень
душно
1016.1 1015.4
14 17.09 З 3 20 км 1/1 600 м
[Cu hum]
+28.0 +20.4 63 +34 +38 очень
душно
1015.8 1015.1
15 17.09 З 3 20 км 1/1 600 м
[Cu hum]
+27.7 +20.4 64 +34 +36 очень
душно
1015.5 1014.8
16 17.09 З 3 20 км 1/1 600 м
[Cu hum]
+24.5 +19.5 74 +30 +30 очень
душно
1025.3 1014.6
17 17.09 СЗ 2 20 км ясно +22.9 +19.4 81 +29 +29 очень
душно
1015.3 1014.6
18 17.09 СВ 3 20 км ясно +21.7 +17.8 78 +26 +26 душно 1015.6 1014.9 +28.7
19 17.09 В 3 20 км ясно +20.8 +15.7 73 +24 +24 комфорт 1015.6 1014.9
20 17.09 В 2 20 км ясно +19.6 +13.8 69 +22 +22 комфорт 1015.7 1015.0
21 17.09 В 2 20 км ясно +18.5 +12.3 67 +20 +20 1015.7 1015.0
00 18.09 СВ 3 20 км ясно +19.6 +14.3 71 +22 +22 комфорт 1015.7 1015.0
03 18.09 В 3 20 км ясно +17.7 +11.2 66 +18 +18 1015.3 1014.6
04 18.09 СВ 3 20 км 3/0
[As trans]
+18.5 +12.5 68 +19 +19 1015.5 1014.8
05 18.09 СВ 3 20 км 1/1 1020 м
[Cu hum]
+18.4 +13.1 71 +19 +19 1015.8 1015.1
06 18.09 В 3 20 км 1/0
[Ac trans]
+20.5 +14.4 68 +23 +24 комфорт 1016.0 1015.3 +17.6
07 18.09 ЮЗ 2 20 км ясно +24.6 +17.2 63 +28 +32 душно 1016.1 1015.4
08 18.09 З 3 25 км ясно +26.8 +19.3 63 +32 +38 очень
душно
1016.3 1015.6
09 18.09 З 3 25 км ясно +27.5 +19.3 61 +33 +41 очень
душно
1016.4 1015.7
10 18.09 З 4 25 км 1/1 1380 м
[Cu hum]
+27.9 +19.7 61 +34 +41 очень
душно
1016.4 1015.7
11 18.09 З 3 25 км 3/1 1200 м
[Cu hum Ac trans]
+27.6 +19.2 60 +33 +41 очень
душно
1016.3 1015.6
12 18.09 ЮЗ 4 25 км 5/1 1380 м
[Cu hum Ac trans]
+26.3 +18.2 61 +31 +36 душно 1016.0 1015.3
13 18.09 З 3 25 км 1/1 1380 м
[Cu hum]
+28.2 +17.9 54 +33 +39 очень
душно
1015.8 1015.1
14 18.09 З 3 25 км ясно +28.5 +19.3 57 +34 +38 очень
душно
1015.3 1014.6
15 18.09 З 3 25 км ясно +28.1 +19.4 59 +34 +36 очень
душно
1015.2 1014.5
16 18.09 З 2 40 км ясно +26.6 +17.6 58 +31 +31 душно 1025.1 1024.4
18 18.09 СВ 3 20 км 1/1 1380 м
[Cu med, cong]
+22.6 +15.9 66 +27 +27 душно 1016.0 1015.3 +28.8
19 18.09 В 3 20 км 8/1 1380 м
[Cu med, cong Ac trans]
+22.0 +15.5 67 +26 +26 душно 1016.3 1015.6
20 18.09 СЗ 3 20 км 6/1 1380 м
[Cu med, cong Ac trans]
+23.9 +14.8 57 +27 +27 жарко 1016.2 1015.5
21 18.09 С 2 20 км 6/1 1380 м
[Cu med, cong Ac trans]
+23.0 +15.2 61 +27 +27 душно 1016.1 1015.4
00 19.09 СВ 3 20 км 5/5 1380 м
[Cu Sc]
+23.5 +12.8 51 +26 +26 жарко 1016.4 1015.7
03 19.09 СВ 2 20 км 4/1 1380 м
[Cu med, cong Ac trans]
+22.8 +12.2 51 +25 +25 комфорт 1015.7 1015.0
04 19.09 В 2 20 км 4/1 1380 м
[Cu med, cong Ac trans]
+23.1 +13.2 54 +26 +26 жарко 1015.1 1014.4
05 19.09 С 3 20 км 5/3 1380 м
[Cu Sc Ci sp]
+22.4 +13.3 56 +25 +25 комфорт 1015.2 1014.5
06 19.09 СВ 4 20 км 9/8 1380 м
[Cu Sc Ac trans]
+24.0 +11.7 46 +26 +26 жарко 1015.5 1014.8 +21.4
07 19.09 СВ 3 20 км 6/5 1380 м
[Cu Sc Ac trans]
+24.5 +12.6 47 +26 +28 жарко 1015.4 1014.7
08 19.09 ЮЗ 4 20 км 4/3 1380 м
[Cu med, cong Ac cuf]
+26.9 +15.8 51 +30 +33 душно 1015.6 1014.9
09 19.09 ЮЗ 3 20 км 8/1 1380 м
[Cu med, cong Ac As]
+27.3 +14.9 47 +30 +33 душно 1015.9 1015.2
10 19.09 З 4 20 км 9/3 1020 м
[Cu med, cong Ac As]
+26.4 +16.2 53 +30 +32 душно 1016.2 1015.5
11 19.09 З 3 15 км 9/5 1020 м
[Cu Sc Ac As]
+26.6 +16.9 55 +30 +33 душно 1016.1 1015.4
12 19.09 З 2
{18}
15 км в посл. час дождь 10/5 1200 м
[Cu Sc As op]
+21.3 +17.0 76 +25 +26 комфорт 1017.4 1016.7 0.3
13 19.09 В 3 12 км слаб. дождь 10/4 1200 м
[Cu Sc As op]
+20.9 +17.9 83 +25 +26 комфорт 1016.9 1016.2
14 19.09 СВ 5 20 км в посл. час гроза {дождь} 10/5 1300 м
[Cu Sc As op]
+20.1 +17.6 86 +23 +23 комфорт 1015.6 1014.9
15 19.09 СВ 4 20 км {гроза, дождь} 10/5 1500 м
[Cu Sc As op]
+21.4 +15.6 70 +25 +25 комфорт 1015.8 1015.1
16 19.09 С 7
{14}
20 км 8/5 1500 м
[Cu Sc Ac cuf]
+21.0 +14.7 67 +24 +24 комфорт 1015.4 1014.7
17 19.09 СВ 4
{12}
20 км 9/9 1500 м
[Cu Sc]
+21.4 +13.0 59 +24 +24 комфорт 1015.9 1015.2
18 19.09 СВ 7
{14}
20 км {гроза, дождь} 10/10 1500 м
[Cu Sc]
+19.5 +10.6 56 +20 +20 1016.4 1015.7 +27.5 4
19 19.09 СВ 8
{14}
20 км 9/9 1500 м
[Cu Sc]
+19.4 +10.4 56 +20 +20 1017.0 1016.3
20 19.09 СВ 9
{18}
20 км 9/4 1500 м
[Cu Sc As op]
+19.4 +18.7 96 +21 +21 комфорт 1017.9 1017.2
21 19.09 СВ 8
{17}
20 км 10/1 1500 м
[Cu hum As op]
+19.1 +7.3 46 +19 +19 1017.9 1017.2
00 20.09 СВ 8
{19}
20 км 10/3 1500 м
[Sc As op]
+18.5 +5.3 42 +18 +18 1018.2 1017.5
03 20.09 С 9
{18}
20 км 3/1 1500 м
[Cu hum Ac lent]
+18.1 +3.5 38 +17 +17 1018.3 1017.5
05 20.09 СВ 9
{18}
20 км 1/0
[Ac lent]
+17.9 +2.8 36 +17 +17 1019.0 1018.3
06 20.09 СВ 9
{18}
20 км 3/1 1500 м
[Sc diur, vesp Ac lent]
+18.7 +3.0 35 +18 +18 1019.4 1018.7 +17.5
07 20.09 С 8
{18}
30 км 1/0
[Ac lent]
+19.5 +3.2 34 +19 +20 1019.5 1018.8
08 20.09 СВ 6
{15}
30 км 1/1 1500 м
[Sc diur, vesp]
+20.7 +3.1 31 +21 +23 комфорт 1020.2 1019.5
09 20.09 СВ 6
{18}
30 км 1/1 1500 м
[Sc diur, vesp]
+22.1 +2.1 27 +22 +25 комфорт 1020.4 1019.7
10 20.09 СВ 5
{11}
30 км 1/1 1500 м
[Sc diur, vesp]
+23.4 +2.9 26 +23 +28 комфорт 1020.2 1019.5
11 20.09 СВ 5 30 км 1/1 1500 м
[Sc diur, vesp]
+24.2 +3.4 26 +24 +29 комфорт 1019.9 1019.2
12 20.09 Ю 4
{18}
30 км ясно +24.2 +6.8 33 +24 +32 комфорт 1019.9 1019.2
13 20.09 Ю 4 30 км ясно +24.8 +6.5 31 +25 +30 комфорт 1019.8 1019.1
14 20.09 З 4 30 км ясно +26.2 +9.7 35 +27 +30 жарко 1019.9 1019.2
15 20.09 З 4 30 км ясно +25.1 +11.1 41 +26 +28 жарко 1020.0 1019.3
16 20.09 З 5 30 км ясно +22.4 +11.3 49 +25 +25 комфорт 1020.2 1019.5
17 20.09 С 3 30 км ясно +20.6 +9.7 50 +23 +23 комфорт 1020.5 1019.8
18 20.09 СВ 3 30 км ясно +18.2 +9.5 57 +19 +19 1021.1 1020.4 +26.4
19 20.09 СВ 3 30 км ясно +16.9 +8.0 56 +17 +17 1021.6 1020.9
20 20.09 СВ 5 30 км ясно +19.4 +3.2 34 +20 +20 1021.8 1021.1
21 20.09 СВ 6 30 км ясно +19.8 +2.1 31 +20 +20 1021.9 1021.2
00 21.09 С 7
{13}
30 км ясно +19.2 +1.7 31 +19 +19 1021.7 1021.0
03 21.09 СВ 6
{13}
30 км ясно +17.4 +0.6 32 +17 +17 1021.9 1021.2
04 21.09 СВ 6
{14}
30 км ясно +17.4 +0.8 33 +17 +17 1022.4 1021.7
05 21.09 СВ 7
{13}
30 км ясно +17.6 +0.7 32 +17 +17 1022.7 1022.0
06 21.09 СВ 6
{14}
30 км ясно +19.0 +2.1 32 +19 +19 1023.0 1022.3 +17.3
07 21.09 СВ 7
{12}
30 км ясно +20.2 +2.6 31 +20 +21 1023.3 1022.6
08 21.09 В 4
{12}
20 км ясно +22.9 +2.2 26 +22 +27 комфорт 1023.8 1023.1
09 21.09 ЮЗ 4 30 км ясно +23.1 +7.0 35 +24 +30 комфорт 1024.0 1023.3
10 21.09 З 4 20 км ясно +24.8 +5.9 30 +25 +32 комфорт 1023.8 1023.1
11 21.09 З 5 25 км ясно +24.1 +8.1 36 +25 +31 комфорт 1023.5 1022.8
12 21.09 З 5 25 км ясно +25.6 +9.5 36 +26 +32 жарко 1023.3 1022.6
13 21.09 З 4 25 км ясно +26.3 +8.5 32 +26 +32 жарко 1023.0 1022.3
14 21.09 З 6 25 км ясно +25.2 +12.8 46 +27 +29 жарко 1022.6 1021.9
15 21.09 З 5 20 км ясно +24.6 +13.3 49 +27 +28 жарко 1022.3 1021.6
16 21.09 З 6 25 км ясно +21.9 +13.7 60 +25 +25 комфорт 1022.5 1021.8
17 21.09 С 2 25 км ясно +20.8 +12.3 58 +24 +24 комфорт 1022.3 1021.6
18 21.09 В 3 25 км ясно +17.7 +10.4 62 +18 +18 1022.8 1022.1 +26.6
19 21.09 СВ 3 25 км ясно +17.6 +9.6 59 +18 +18 1022.9 1022.2
20 21.09 В 2 20 км ясно +16.0 +9.5 65 +16 +16 1022.9 1022.2
21 21.09 В 3 20 км ясно +16.2 +9.3 64 +16 +16 1022.7 1022.0
00 22.09 В 3 20 км ясно +14.6 +7.1 61 +14 +14 1022.5 1021.8
03 22.09 СВ 3 20 км ясно +14.1 +6.7 61 +13 +13 1022.1 1021.4
04 22.09 СВ 3 20 км ясно +15.5 +6.4 55 +15 +15 1022.0 1021.3
05 22.09 В 3 20 км 4/0
[Ci fib]
+15.6 +7.3 58 +15 +15 1022.0 1021.4
06 22.09 СВ 3 25 км 3/0
[Ci fib]
+18.3 +10.1 59 +19 +20 1022.1 1021.4 +13.9
07 22.09 Ю 2 25 км 1/0
[Ci fib]
+22.1 +11.4 51 +24 +28 комфорт 1021.6 1020.9
08 22.09 ЮЗ 2 30 км 3/0
[Ci sp]
+24.0 +11.0 44 +25 +31 комфорт 1021.8 1021.1
09 22.09 З 4 30 км 4/0
[Ci sp]
+25.4 +12.1 43 +27 +33 жарко 1021.7 1021.0
10 22.09 ЮЗ 4 30 км 6/0
[Ci sp]
+24.1 +11.4 45 +26 +32 жарко 1022.2 1021.5
11 22.09 Ю 4 30 км 3/0
[Ci sp]
+24.3 +13.5 51 +27 +34 жарко 1021.3 1020.6
12 22.09 ЮЗ 4 30 км 4/0
[Ci sp]
+24.3 +13.1 50 +26 +33 жарко 1021.1 1020.4
13 22.09 Ю 4 30 км 4/0
[Ci sp]
+24.9 +13.2 48 +27 +32 жарко 1020.6 1019.6
14 22.09 Ю 4 30 км 3/0
[Cc]
+24.4 +12.3 47 +26 +29 жарко 1020.0 1019.3
15 22.09 Ю 3 30 км 8/0
[Ac und]
+22.4 +13.3 56 +25 +26 комфорт 1019.9 1019.2
16 22.09 З 2 30 км 8/0
[Ac und]
+22.4 +13.3 56 +25 +25 комфорт 1019.6 1018.9
17 22.09 СВ 2 20 км 6/0
[Ac As]
+19.9 +13.0 64 +22 +22 комфорт 1019.5 1018.8
18 22.09 В 3 20 км 3/0
[Ac cuf]
+18.5 +11.0 62 +19 +19 1019.1 1018.4 +26.0
19 22.09 СВ 3 20 км 3/0
[Ac cuf]
+17.1 +5.5 46 +17 +17 1019.7 1019.0
20 22.09 В 3 20 км 5/0
[Ac As]
+17.7 +7.0 49 +18 +18 1019.4 1018.7
21 22.09 СВ 2 20 км 6/0
[Ac trans]
+17.7 +4.2 41 +18 +18 1019.1 1018.4
00 23.09 В 2 20 км 6/0
[Ac As]
+18.8 +6.9 46 +20 +20 1018.9 1018.2
03 23.09 В 3 20 км 9/6 1200 м
[Cu Sc Ac trans]
+19.8 +9.4 51 +21 +21 комфорт 1017.7 1017.0
04 23.09 СВ 3 20 км 9/6 1200 м
[Cu Sc As op]
+20.7 +12.2 58 +23 +23 комфорт 1017.2 1016.5
05 23.09 С 3 20 км 9/3 1500 м
[Sc Ac As]
+20.1 +12.1 60 +22 +22 комфорт 1016.7 1016.0
06 23.09 С 3 15 км слаб. дождь 9/9 1200 м
[Cu Sc]
+20.3 +15.1 72 +23 +23 комфорт 1017.0 1016.3 +17.0 0.4
07 23.09 СВ 5 20 км {дождь} 9/6 1200 м
[Cu Sc Ac trans]
+21.2 +12.5 58 +23 +24 комфорт 1016.2 1015.5
08 23.09 В 3 18 км слаб. дождь 10/8 1380 м
[Cu Sc As op]
+22.4 +13.3 56 +25 +26 комфорт 1015.2 1014.5
09 23.09 СВ 5 15 км слаб. дождь 10/8 1200 м
[Cu Sc As op]
+18.8 +15.9 83 +20 +20 1015.0 1014.3
10 23.09 В 5 12 км слаб. дождь 10/6 800 м
[Frnb As op]
+20.0 +16.0 78 +22 +23 комфорт 1014.7 1014.0

 

Местоположение метеостанции Бар (Черногория): широта 42.10 долгота 19.10 высота над уровнем моря 6 м.

В архиве по умолчанию представлена погода в Баре за последнюю неделю. Архивные данные за месяц целиком и за предыдущие месяцы, начиная с января 2011 года, Вы можете получить, выбрав интересующий диапазон дат из раскрывающегося списка и нажав кнопку "Ввод!".


*Определитесь, кто Вы:
робот инопланетянин человек

Внимание! Время в таблицах - всемирное. Для получения местного времени необходимо прибавить поправку, которая равна 1 ч.

Смотрите также архив погоды в соседних городах и на ближайших метеорологических станциях:

Погода в Подгорице (Черногория) (32 км)
Погода в Шкодре (Албания) (35 км)
Погода в Подгорица-Граде (Черногория) (40 км)
Погода в Тивате (Черногория) (45 км)
Погода в Никшиче (Черногория) (76 км)
Погода в Тиране Лапрака (Албания) (86 км)
Погода в Дубровник аэропорту (Хорватия) (86 км)
Погода в Дурресе (Албания) (94 км)
Погода в Тиране (Албания) (103 км)
Погода в Дубровнике (Хорватия) (104 км)

Пояснения к столбцам:

Ветер - указаны скорость ветра в м/с - средняя за 10 мин, порывы в срок и между сроками (в фигурных скобках) и направление, откуда дует ветер: С - северный, СВ - северо-восточный, В - восточный, ЮВ - юго-восточный, Ю - южный, ЮЗ - юго-западный, З - западный, СЗ - северо-западный.
Видимость - горизонтальная дальность видимости в метрах или километрах. При видимости от 1 до 10 км при отсутствии осадков обычно наблюдается дымка, при ухудшении видимости до 1 км и менее - туман. В сухую погоду видимость может ухудшаться дымом, пылью или мглою.
Явления - указаны атмосферные явления, наблюдавшиеся в срок или в последний час перед сроком; фигурными скобками обозначены явления, наблюдавшиеся между сроками (за 1-3 часа до срока); квадратными скобками обозначены град или гололедные отложения с указанием их диаметра в мм.
Облачность - указаны через наклонную черту общая и нижняя облачность в баллах и высота нижней границы облаков в метрах; квадратными скобками обозначены формы облаков: Ci - перистые, Cs - перисто-слоистые, Cc - перисто-кучевые, Ac - высококучевые, As - высокослоистые, Sc - слоисто-кучевые, Ns - слоисто-дождевые, Cu - кучевые, Cb - кучево-дождевые. Подробнее классификацию облаков см. в Атласе облаков (PDF).
T - Температура воздуха - температура, измеренная на высоте 2 м над землей.
Td - Температура точки росы - температура, при понижении до которой содержащийся в воздухе водяной пар достигнет насыщения.
f - Относительная влажность воздуха - влажноcть воздуха, измеренная на высоте 2 м над землей.
Te - Эффективная температура - температура, которую ощущает одетый по сезону человек в тени. Характеристика душности погоды. При расчете учитывается влияние влажности воздуха и скорости ветра на теплоощущения человека.
Tes - Эффективная температура на солнце - температура, которую ощущает человек, с поправкой на солнечный нагрев. Характеристика знойности погоды. Зависит от высоты солнца над горизонтом, облачности и скорости ветра. Ночью, в пасмурную погоду, а также при ветре 12 м/с и более поправка равна нулю.
P - Атмосферное давление - приведенное к уровню моря атмосферное давление.
Po - Атмосферное давление - измеренное на уровне метеостанции атмосферное давление.
Tmin - Минимальная температура - минимум температуры воздуха на высоте 2 м над землей.
Tmax - Максимальная температура - максимум температуры воздуха на высоте 2 м над землей.
R - Количество осадков - Количество выпавших осадков за период времени, мм. При наведении курсора мыши на число - период времени, за который выпало указанное количество осадков.
R24 - Количество осадков - Количество выпавших осадков за 24 часа, мм.
S - Снежный покров - Высота снежного покрова, см. При наведении курсора мыши на число - состояние снежного покрова и степень покрытия местности в баллах.